Bartow, Florida, United States (33830)
Lat: 27.90N, Lon: 81.84W
Wx Zone: FLZ052
Local Info
Past Weather Observations for Wednesday, September 17, 2014

NOTE: This archive is for the closest National Weather Service station to Bartow. Information may differ from the station used for current weather conditions.

Click here for Long-term Archive

Time Weather Temperature Dewpoint Humidity Pressure Winds Precip Visibility
23:55
Overcast
Fog
72°F / 22°C N/A N/A 29.95 in
(1014 mb)
Calm - 1/4SM
23:35
Overcast
Fog
72°F / 22°C N/A N/A 29.95 in
(1014 mb)
Calm - 1/4SM
23:15
Mostly Cloudy
Hazy
72°F / 22°C N/A N/A 29.95 in
(1014 mb)
Calm - 5SM
22:55
Partly Cloudy
72°F / 22°C N/A N/A 29.95 in
(1014 mb)
SSE 3.5 mph
(SSE 6 kph)
- 10SM
22:35
Clear
72°F / 22°C N/A N/A 29.95 in
(1014 mb)
SW 3.5 mph
(SW 6 kph)
- 10SM
22:15
Clear
72°F / 22°C N/A N/A 29.95 in
(1014 mb)
Calm - 10SM
21:55
Clear
72°F / 22°C N/A N/A 29.95 in
(1014 mb)
Calm - 10SM
21:35
Clear
72°F / 22°C N/A N/A 29.95 in
(1014 mb)
Calm - 8SM
21:15
Clear
72°F / 22°C N/A N/A 29.95 in
(1014 mb)
Calm - 7SM
20:55
Clear
Hazy
72°F / 22°C N/A N/A 29.95 in
(1014 mb)
Calm - 5SM
20:35
Clear
72°F / 22°C N/A N/A 29.95 in
(1014 mb)
Calm - 7SM
20:15
Partly Cloudy
73°F / 23°C N/A N/A 29.95 in
(1014 mb)
Calm - 9SM
19:55
Partly Cloudy
73°F / 23°C N/A N/A 29.92 in
(1013 mb)
Calm - 7SM
19:35
Mostly Cloudy
73°F / 23°C N/A N/A 29.92 in
(1013 mb)
SSE 3.5 mph
(SSE 6 kph)
- 7SM
19:15
Mostly Cloudy
Hazy
73°F / 23°C N/A N/A 29.92 in
(1013 mb)
S 3.5 mph
(S 6 kph)
- 6SM
18:55
Partly Cloudy
Fog And Mist
73°F / 23°C 73°F / 23°C 100% 29.92 in
(1013 mb)
S 3.5 mph
(S 6 kph)
- 6SM
18:35
Clear
75°F / 24°C 73°F / 23°C 94% 29.92 in
(1013 mb)
Calm - 10SM
18:15
Clear
75°F / 24°C 73°F / 23°C 94% 29.92 in
(1013 mb)
Calm - 10SM
17:55
Clear
75°F / 24°C 73°F / 23°C 94% 29.92 in
(1013 mb)
Calm - 10SM
17:35
Partly Cloudy
77°F / 25°C 75°F / 24°C 94% 29.92 in
(1013 mb)
SSW 3.5 mph
(SSW 6 kph)
- 10SM
17:15
Mostly Cloudy
75°F / 24°C 75°F / 24°C 100% 29.92 in
(1013 mb)
SW 4.6 mph
(SW 7 kph)
- 10SM
16:55
Mostly Cloudy
75°F / 24°C 75°F / 24°C 100% 29.92 in
(1013 mb)
SW 4.6 mph
(SW 7 kph)
- 10SM
16:35
Partly Cloudy
75°F / 24°C 75°F / 24°C 100% 29.92 in
(1013 mb)
SW 5.8 mph
(SW 9 kph)
- 10SM
15:47
Mostly Cloudy
73°F / 23°C 73°F / 23°C 100% 29.89 in
(1012 mb)
S 4.6 mph
(S 7 kph)
- 10SM
14:47
Mostly Cloudy
73°F / 23°C 73°F / 23°C 100% 29.92 in
(1013 mb)
SW 3.5 mph
(SW 6 kph)
- 10SM
13:47
Mostly Cloudy
Drizzle
73°F / 23°C 73°F / 23°C 100% 29.95 in
(1014 mb)
SSW 4.6 mph
(SSW 7 kph)
- 7SM
12:50
Mostly Cloudy
73°F / 23°C 73°F / 23°C 100% 29.95 in
(1014 mb)
SW 4.6 mph
(SW 7 kph)
- 10SM
11:55
Mostly Cloudy
73°F / 23°C 73°F / 23°C 100% 29.98 in
(1015 mb)
SW 4.6 mph
(SW 7 kph)
- 10SM
10:53
Mostly Cloudy
Drizzle
73°F / 23°C N/A N/A 29.98 in
(1015 mb)
SSW 4.6 mph
(SSW 7 kph)
- 10SM
09:47
Mostly Cloudy
Drizzle
73°F / 23°C N/A N/A 30.01 in
(1016 mb)
SW 6.9 mph
(SW 11 kph)
- 10SM
08:47
Mostly Cloudy
Drizzle
72°F / 22°C N/A N/A 30.01 in
(1016 mb)
SSW 5.8 mph
(SSW 9 kph)
- 10SM
07:47
Mostly Cloudy
Light Rain
73°F / 23°C N/A N/A 30.01 in
(1016 mb)
SSW 6.9 mph
(SSW 11 kph)
- 7SM
06:47
Mostly Cloudy
Light Rain
73°F / 23°C N/A N/A 29.98 in
(1015 mb)
SSW 9.2 mph
(SSW 15 kph)
- 6SM
06:15
Mostly Cloudy
Hazy
73°F / 23°C N/A N/A 29.98 in
(1015 mb)
SW 4.6 mph
(SW 7 kph)
- 5SM
05:55
Mostly Cloudy
73°F / 23°C N/A N/A 29.98 in
(1015 mb)
SSE 4.6 mph
(SSE 7 kph)
- 10SM
05:35
Partly Cloudy
73°F / 23°C N/A N/A 29.98 in
(1015 mb)
SW 3.5 mph
(SW 6 kph)
- 10SM
05:15
Mostly Cloudy
72°F / 22°C N/A N/A 29.98 in
(1015 mb)
SW 5.8 mph
(SW 9 kph)
- 10SM
04:55
Overcast
Drizzle
72°F / 22°C N/A N/A 29.98 in
(1015 mb)
SSE 6.9 mph
(SSE 11 kph)
0.30 in
(7.62 mm)
1 1/2SM
04:35
Mostly Cloudy
Heavy Rain
73°F / 23°C 73°F / 23°C 100% 29.98 in
(1015 mb)
NW 6.9 mph
(NW 11 kph)
- 8SM
04:15
Partly Cloudy
72°F / 22°C N/A N/A 29.98 in
(1015 mb)
SSE 3.5 mph
(SSE 6 kph)
- 10SM
03:55
Clear
72°F / 22°C 72°F / 22°C 100% 29.95 in
(1014 mb)
S 5.8 mph
(S 9 kph)
- 10SM
03:35
Partly Cloudy
72°F / 22°C N/A N/A 29.95 in
(1014 mb)
S 4.6 mph
(S 7 kph)
- 10SM
03:15
Clear
72°F / 22°C 72°F / 22°C 100% 29.98 in
(1015 mb)
S 4.6 mph
(S 7 kph)
- 10SM
02:55
Partly Cloudy
72°F / 22°C 72°F / 22°C 100% 29.98 in
(1015 mb)
S 3.5 mph
(S 6 kph)
- 10SM
02:35
Partly Cloudy
72°F / 22°C 72°F / 22°C 100% 29.98 in
(1015 mb)
S 3.5 mph
(S 6 kph)
- 10SM
02:15
Partly Cloudy
72°F / 22°C 72°F / 22°C 100% 29.98 in
(1015 mb)
SSE 3.5 mph
(SSE 6 kph)
- 10SM
01:55
Clear
72°F / 22°C 72°F / 22°C 100% 29.98 in
(1015 mb)
S 4.6 mph
(S 7 kph)
- 10SM
01:35
Clear
72°F / 22°C 72°F / 22°C 100% 29.98 in
(1015 mb)
S 5.8 mph
(S 9 kph)
- 10SM
01:15
Clear
72°F / 22°C 72°F / 22°C 100% 29.98 in
(1015 mb)
S 6.9 mph
(S 11 kph)
- 10SM
00:55
Clear
72°F / 22°C N/A N/A 30.01 in
(1016 mb)
S 5.8 mph
(S 9 kph)
- 10SM
00:35
Clear
73°F / 23°C N/A N/A 30.01 in
(1016 mb)
S 3.5 mph
(S 6 kph)
- 10SM
00:15
Clear
73°F / 23°C 73°F / 23°C 100% 30.01 in
(1016 mb)
SSE 3.5 mph
(SSE 6 kph)
- 10SM
Time Weather Temperature Dewpoint Humidity Pressure Winds Precip Visibility


Weather for websites

WeatherForYou.com, LLC is not responsible for any damages or problems caused by this service. Current weather conditions are obtained from the closest station including government and personal stations which may have varying degrees of accuracy. Weather forecasts are derived from the NOAA NDFD. Like all things, this site belongs to Jesus Christ... He just trusts me to maintain it. If you have any questions or comments email webmaster@weatherforyou.com

Copyright © 2014, WeatherForYou.com LLC. All rights reserved.